Terminal Aerodrome Forecast
Issued by NWS

Home | Current Version | Previous Version | Graphics & Text | Print | Product List | Glossary On
Versions: 1 2 3 4 5 6 7 8 9 10 11 12 13 14 15 16 17 18 19
160
FTUS43 KICT 250522
TAFHUT
TAF
KHUT 250522Z 2506/2606 06007KT P6SM VCTS SCT080CB BKN200
     FM251300 09007KT P6SM SCT040 BKN070
     FM251800 15013KT P6SM SCT150 BKN200
     FM260000 15006KT P6SM SCT150=

USA.gov is the U.S. government's official web portal to all federal, state and local government web resources and services.